Wind_Speed
13 13 13 13 15 16 16 16 15 13 13 11 10 9 8 7 7 6 7 8 9 10 11 11 10 9 8 8 7 7 10 11 11 11 12 13 14 14 15 17 17 17
13 13 14 15 17 18 18 17 16 14 13 12 11 9 8 7 7 7 8 8 9 10 10 10 10 9 9 8 8 9 9 10 10 11 13 13 14 15 15 16 16 17
13 13 13 16 18 19 18 18 17 16 14 13 12 10 9 8 7 7 8 8 9 9 9 9 10 10 10 9 9 9 9 10 10 12 13 13 15 15 15 16 15 16
14 13 14 17 19 19 18 17 17 16 15 13 11 9 7 7 7 8 8 8 9 10 10 10 10 11 11 9 8 8 10 11 12 12 13 14 15 16 16 15 15 16
15 14 15 17 19 20 19 18 17 16 15 12 10 8 6 5 6 7 8 9 10 11 11 11 11 11 11 9 7 8 9 10 11 11 12 13 14 15 16 16 16 16
17 16 16 18 18 19 19 18 16 15 14 11 9 7 5 4 5 6 7 9 11 12 11 11 11 12 11 10 9 10 9 9 10 11 12 13 13 14 15 15 15 16
19 18 18 19 19 19 18 17 15 15 13 11 8 6 4 3 4 6 7 8 10 11 11 11 11 11 11 11 11 12 11 10 10 11 13 13 13 13 14 13 14 14
20 20 20 20 20 20 19 17 16 15 14 11 9 6 4 3 3 5 7 7 8 9 10 9 9 9 10 11 11 12 12 12 12 12 12 13 13 13 13 13 13 13
22 22 22 23 23 22 20 18 17 16 14 12 9 7 5 3 3 4 5 6 6 7 8 9 9 10 11 11 11 12 13 13 14 14 13 12 12 12 13 13 13 13
22 24 25 24 24 23 21 19 19 17 15 13 11 9 7 4 3 4 4 5 6 7 9 10 11 12 11 11 11 11 12 13 14 17 17 15 14 14 13 13 13 13
22 23 25 25 24 23 22 21 20 18 16 14 12 10 9 6 4 4 4 5 7 9 10 11 12 12 12 13 12 12 11 11 13 15 18 18 17 16 14 14 13 13
23 24 25 26 25 24 23 22 20 19 17 15 13 11 10 7 6 5 5 6 7 9 10 11 11 10 12 13 13 13 12 11 12 13 15 16 16 16 15 14 13 12
25 27 27 28 27 25 25 23 21 20 19 16 14 13 11 10 9 7 6 5 6 6 7 8 8 9 10 11 12 12 12 12 12 13 15 16 16 16 15 14 13 12
26 29 30 29 28 26 26 25 23 22 21 18 15 14 13 12 11 9 6 4 3 4 5 7 8 9 10 10 10 10 11 12 13 14 15 16 16 15 14 13 13 13
28 30 31 32 31 29 28 27 25 24 22 19 17 16 14 13 12 10 6 3 2 2 4 6 8 9 10 10 10 10 10 11 12 13 15 16 15 13 12 10 11 13
28 30 31 33 32 30 29 28 27 25 23 19 18 17 16 15 13 10 7 4 2 2 4 6 8 10 11 11 12 12 11 11 11 12 13 13 13 11 10 10 11 13
29 29 30 32 31 28 28 29 27 25 24 22 20 18 17 16 13 11 9 7 5 4 5 6 8 10 11 12 13 14 14 14 13 13 13 12 12 12 12 12 12 14
29 29 30 31 29 26 27 29 29 26 26 25 23 20 19 17 14 13 11 9 7 6 7 8 9 10 12 13 14 15 16 17 15 15 15 15 15 15 14 14 15 16
29 29 31 31 29 27 27 30 31 29 29 28 25 22 20 18 16 15 13 11 9 8 9 11 12 12 13 13 14 15 17 18 18 18 17 17 17 16 15 15 15 14
28 29 30 29 29 29 29 30 31 32 31 28 25 22 20 19 18 16 15 13 11 10 11 13 14 14 14 14 15 16 17 18 20 20 19 18 18 17 16 15 13 11
28 30 30 30 30 31 30 29 32 33 31 27 24 22 21 21 20 18 16 14 13 11 12 15 16 15 15 15 16 16 17 18 19 19 19 19 18 17 17 16 14 11
28 30 32 32 32 33 31 30 32 32 29 27 25 24 24 23 21 19 16 14 13 12 12 15 17 16 15 15 16 16 17 18 18 19 19 19 17 16 17 17 16 14
27 29 31 31 32 34 32 31 33 33 29 28 27 26 25 23 21 19 17 15 14 13 13 16 17 16 16 15 15 15 16 17 18 18 19 19 18 18 18 17 16 15
24 27 28 28 31 34 32 32 35 35 30 29 27 26 25 23 23 21 19 17 16 15 15 17 18 17 16 16 16 15 16 16 17 16 16 17 17 18 18 17 16 15
25 27 29 30 31 32 31 33 36 34 30 28 27 26 26 26 26 25 22 20 19 18 18 19 19 18 16 16 16 16 15 16 16 16 16 15 15 16 16 15 14 14
29 28 29 33 32 30 33 37 36 32 29 28 28 28 30 31 31 29 25 22 21 21 20 21 20 19 17 16 16 16 15 16 16 17 17 16 16 16 16 16 16 16
Wind_Direction
189 184 186 183 179 178 176 173 170 169 171 171 170 176 180 180 184 194 204 208 214 217 213 214 221 217 203 201 203 203 196 187 184 185 188 192 194 195 195 195 197 198
194 189 188 184 178 176 174 173 171 170 171 169 172 178 178 183 191 199 209 215 221 229 224 218 222 222 214 205 196 196 201 193 185 186 189 190 195 197 197 198 200 198
200 197 192 186 180 180 181 178 174 172 171 172 176 181 184 189 195 202 209 214 221 229 229 222 223 223 219 210 192 187 199 198 190 189 189 188 193 196 193 195 201 199
200 199 193 188 183 184 186 182 177 174 175 179 182 187 198 203 206 210 210 211 216 221 221 216 219 223 224 215 190 179 191 198 194 188 186 187 192 194 191 195 201 201
199 201 195 192 188 186 186 183 179 177 179 182 184 193 210 219 223 220 213 207 209 215 215 209 210 218 221 214 193 178 183 194 193 186 184 189 195 196 193 195 201 202
196 201 198 197 194 189 189 187 181 179 180 180 182 193 206 218 229 227 219 210 206 209 211 204 205 211 211 201 191 186 185 189 191 187 189 193 196 197 195 194 197 199
195 200 201 201 197 193 194 191 184 182 183 181 181 184 196 213 225 226 223 215 208 206 204 200 201 207 208 198 190 191 192 191 192 194 195 194 191 192 195 195 197 198
198 201 203 203 198 198 200 194 186 187 187 186 183 184 190 205 222 227 225 218 211 205 198 193 193 200 209 206 195 191 191 189 191 196 200 198 189 187 191 195 198 197
199 204 205 205 202 202 202 195 189 192 193 190 189 189 192 196 217 232 229 218 209 198 189 186 190 196 204 210 205 195 192 189 187 192 198 200 196 192 190 190 193 194
198 207 207 206 207 205 203 198 193 195 198 196 193 193 197 197 208 230 231 217 201 194 190 188 193 196 197 206 210 204 199 193 188 189 189 191 196 197 193 190 192 191
198 209 211 210 213 210 205 202 198 197 200 198 193 197 203 200 204 224 223 210 202 199 198 197 198 197 194 199 206 207 205 198 192 191 188 188 193 193 193 195 192 188
203 207 213 213 214 214 210 206 203 202 203 200 195 201 207 202 203 214 213 214 214 208 204 204 203 199 198 202 205 204 202 198 197 196 192 193 195 194 196 199 194 185
214 208 212 213 213 214 213 210 207 206 207 204 199 203 207 203 202 210 214 221 226 218 210 209 207 204 205 209 211 208 203 201 203 204 203 202 202 200 198 199 197 189
228 215 211 212 213 214 213 212 210 209 210 207 202 204 205 206 208 214 219 226 225 209 202 203 202 203 207 211 213 211 208 207 210 213 215 215 214 207 195 188 192 191
234 224 215 213 214 212 212 213 211 211 212 209 204 205 206 211 217 219 216 213 201 182 193 198 196 197 204 210 214 212 208 208 213 217 220 223 223 213 197 186 184 185
228 226 223 219 214 208 209 213 212 212 213 211 208 207 208 214 220 221 213 199 181 192 211 215 208 202 201 205 212 212 206 202 208 214 217 223 228 220 209 205 192 184
223 223 227 226 220 210 206 210 213 214 213 213 212 210 211 218 220 218 215 208 206 220 231 236 231 218 208 204 207 209 206 201 201 205 207 212 222 222 214 213 204 191
230 226 228 230 226 216 206 206 211 215 214 215 216 214 217 222 219 217 222 227 237 245 242 242 241 231 219 211 209 208 207 204 200 201 203 204 213 218 214 214 211 201
241 237 234 232 227 218 210 207 209 213 215 217 217 217 222 224 219 220 228 239 252 256 243 237 238 234 225 217 215 213 208 204 201 203 207 209 214 218 217 218 218 210
239 239 237 233 227 221 215 211 209 213 217 218 217 219 223 223 221 225 233 244 258 260 243 230 229 230 225 216 215 215 211 207 205 206 212 217 220 222 222 221 220 214
235 235 233 231 227 222 219 216 212 212 215 216 216 218 219 219 222 229 237 249 262 264 245 229 226 227 223 216 213 214 212 210 207 207 213 218 219 222 226 226 222 215
234 235 233 230 226 222 222 221 214 209 211 214 214 214 216 220 226 232 241 252 263 263 245 228 223 223 221 215 213 212 211 211 209 207 211 214 213 215 222 227 227 223
231 232 232 230 228 227 227 221 212 207 207 210 212 216 219 224 228 232 242 252 256 254 239 224 220 220 217 213 213 211 209 210 212 211 213 214 211 209 213 219 225 227
228 230 235 232 227 227 224 215 209 208 205 205 211 217 221 224 227 231 239 246 246 242 234 223 220 218 214 209 210 210 210 212 214 214 217 220 218 216 216 219 227 233
219 223 233 233 226 225 221 211 205 205 204 205 211 218 222 224 227 232 237 239 239 239 233 225 221 218 215 211 210 211 212 215 216 215 217 221 223 226 226 227 232 238
197 190 199 210 216 216 211 204 200 201 204 208 214 221 226 228 230 233 235 234 235 236 230 223 219 217 217 216 216 216 217 220 222 222 222 223 225 227 230 232 234 237
Height
3120 3121 3122 3122 3123 3125 3126 3127 3129 3130 3132 3133 3134 3135 3136 3137 3138 3139 3140 3141 3141 3142 3144 3144 3144 3146 3148 3150 3150 3150 3151 3151 3152 3153 3154 3155 3156 3157 3158 3159 3161 3162
3119 3120 3121 3121 3123 3124 3125 3126 3128 3129 3131 3132 3133 3135 3136 3137 3138 3139 3140 3141 3141 3141 3143 3144 3144 3145 3147 3149 3150 3150 3150 3150 3151 3152 3152 3153 3154 3156 3157 3158 3159 3161
3118 3119 3120 3121 3122 3123 3125 3126 3127 3129 3130 3132 3133 3134 3136 3136 3137 3138 3139 3140 3140 3140 3141 3143 3143 3144 3145 3147 3149 3150 3150 3150 3150 3151 3151 3152 3153 3154 3155 3156 3158 3160
3116 3118 3119 3120 3121 3123 3124 3125 3127 3128 3130 3131 3132 3133 3134 3135 3136 3136 3137 3138 3138 3139 3140 3141 3142 3142 3143 3146 3148 3150 3149 3149 3149 3150 3150 3151 3152 3153 3154 3155 3157 3158
3114 3117 3118 3119 3121 3121 3123 3124 3125 3127 3128 3129 3131 3131 3132 3133 3134 3134 3135 3136 3137 3137 3138 3140 3141 3141 3142 3144 3146 3148 3147 3147 3148 3149 3149 3150 3151 3152 3153 3155 3156 3157
3113 3115 3117 3118 3119 3120 3121 3122 3123 3125 3126 3127 3129 3130 3130 3131 3132 3132 3133 3134 3135 3135 3136 3138 3139 3140 3141 3143 3145 3146 3146 3146 3147 3148 3149 3149 3149 3151 3152 3153 3155 3156
3112 3114 3115 3116 3118 3119 3119 3120 3121 3122 3124 3125 3127 3128 3129 3130 3130 3131 3131 3132 3133 3134 3135 3136 3138 3138 3140 3142 3144 3145 3146 3146 3146 3146 3147 3148 3149 3150 3151 3152 3153 3155
3112 3113 3115 3115 3116 3117 3118 3119 3120 3121 3122 3124 3125 3127 3128 3129 3129 3130 3130 3131 3132 3133 3134 3135 3136 3137 3137 3139 3142 3143 3145 3145 3146 3145 3146 3147 3148 3150 3151 3152 3152 3153
3111 3113 3114 3115 3116 3117 3117 3118 3118 3119 3120 3122 3124 3125 3127 3128 3128 3129 3129 3130 3131 3132 3133 3134 3135 3136 3136 3137 3139 3141 3143 3145 3145 3145 3145 3145 3147 3148 3150 3151 3151 3152
3110 3113 3114 3115 3116 3117 3118 3118 3118 3118 3119 3120 3122 3124 3125 3126 3127 3128 3128 3129 3130 3131 3132 3133 3134 3135 3136 3136 3137 3139 3141 3143 3144 3145 3145 3145 3145 3146 3148 3149 3150 3151
3108 3112 3114 3115 3116 3117 3118 3118 3118 3118 3118 3119 3121 3122 3124 3125 3126 3127 3128 3128 3129 3130 3131 3132 3133 3134 3135 3136 3137 3137 3139 3140 3142 3143 3144 3144 3145 3146 3147 3147 3149 3149
3105 3108 3112 3113 3114 3116 3117 3117 3117 3117 3117 3118 3119 3121 3122 3124 3125 3126 3127 3127 3128 3129 3130 3131 3132 3134 3135 3135 3136 3137 3138 3139 3139 3140 3142 3143 3144 3145 3146 3147 3148 3148
3104 3104 3107 3110 3112 3114 3115 3115 3115 3116 3116 3117 3118 3119 3121 3123 3124 3125 3126 3127 3127 3128 3129 3130 3131 3133 3134 3135 3136 3137 3138 3138 3139 3139 3140 3141 3142 3143 3144 3145 3146 3147
3105 3102 3103 3106 3109 3111 3113 3113 3113 3114 3115 3116 3117 3118 3120 3121 3122 3124 3125 3126 3126 3128 3129 3129 3130 3132 3133 3134 3135 3137 3138 3138 3138 3138 3139 3139 3140 3142 3143 3145 3145 3146
3102 3102 3101 3102 3105 3108 3110 3111 3111 3112 3114 3115 3116 3118 3118 3119 3121 3123 3124 3125 3126 3127 3127 3128 3129 3131 3132 3133 3134 3135 3136 3137 3137 3137 3137 3138 3139 3140 3142 3143 3144 3145
3098 3100 3101 3100 3101 3105 3107 3109 3109 3110 3112 3114 3115 3116 3117 3117 3120 3122 3123 3124 3125 3125 3126 3126 3128 3129 3131 3132 3133 3134 3135 3136 3137 3137 3137 3137 3138 3139 3141 3141 3142 3144
3093 3096 3098 3098 3099 3102 3104 3105 3107 3108 3110 3111 3113 3114 3115 3116 3119 3121 3122 3123 3124 3125 3125 3126 3127 3128 3129 3130 3131 3132 3133 3134 3136 3136 3136 3136 3137 3137 3139 3140 3141 3142
3091 3092 3092 3094 3096 3099 3100 3101 3103 3105 3107 3108 3110 3112 3114 3116 3118 3119 3120 3122 3123 3124 3125 3125 3125 3126 3127 3128 3129 3130 3131 3133 3134 3135 3135 3135 3135 3136 3137 3138 3139 3141
3089 3089 3089 3090 3093 3096 3096 3097 3099 3102 3104 3105 3108 3111 3113 3114 3116 3117 3119 3120 3121 3122 3123 3124 3124 3125 3125 3126 3127 3128 3129 3131 3132 3133 3133 3134 3134 3135 3136 3137 3138 3140
3084 3085 3086 3087 3090 3092 3093 3094 3096 3098 3101 3104 3106 3109 3111 3112 3114 3115 3117 3118 3120 3120 3121 3122 3122 3123 3123 3124 3125 3126 3127 3129 3130 3131 3132 3132 3133 3133 3135 3136 3138 3140
3080 3082 3083 3084 3086 3088 3090 3092 3093 3095 3098 3102 3105 3107 3109 3110 3111 3113 3115 3116 3117 3118 3119 3119 3120 3121 3122 3122 3123 3124 3125 3126 3127 3129 3129 3130 3131 3132 3133 3134 3136 3137
3077 3078 3080 3081 3083 3084 3086 3089 3091 3093 3096 3100 3102 3104 3105 3107 3109 3111 3112 3113 3114 3116 3116 3117 3118 3119 3119 3120 3121 3122 3123 3124 3125 3126 3126 3127 3128 3130 3130 3131 3133 3134
3074 3075 3077 3078 3079 3081 3083 3086 3088 3090 3093 3096 3099 3101 3103 3105 3107 3108 3109 3111 3112 3113 3114 3115 3115 3116 3117 3118 3119 3120 3121 3121 3122 3123 3124 3125 3127 3128 3129 3129 3131 3132
3072 3073 3075 3076 3077 3078 3080 3083 3086 3088 3090 3093 3096 3098 3100 3102 3104 3105 3106 3108 3109 3111 3112 3113 3113 3114 3115 3116 3117 3118 3119 3119 3120 3121 3122 3124 3125 3126 3127 3128 3129 3131
3070 3071 3072 3073 3075 3077 3079 3081 3085 3087 3088 3090 3093 3095 3097 3099 3100 3102 3103 3105 3106 3108 3109 3110 3111 3112 3113 3114 3115 3115 3116 3117 3118 3119 3120 3121 3123 3124 3125 3127 3128 3129
3067 3068 3068 3069 3072 3076 3078 3080 3083 3084 3085 3087 3089 3091 3093 3095 3096 3098 3100 3102 3103 3105 3106 3107 3108 3109 3110 3112 3113 3114 3114 3115 3115 3116 3117 3118 3120 3121 3123 3124 3125 3126